{"data":{"norad_id":69083,"epoch":"2026-05-25T04:13:27.727968Z","epoch_age_seconds":53634,"freshness":"FRESH","line1":"1 69083U 26104L   26145.17601537  .00000167  00000+0  64421-4 0  9991","line2":"2 69083  88.9867 344.2451 0003804 165.6746 194.4556 14.25596642  1826","mean_motion":14.25596642,"eccentricity":0.0003804,"inclination_deg":88.9867,"raan_deg":344.2451,"arg_perigee_deg":165.6746,"mean_anomaly_deg":194.4556,"bstar":6.4421e-5,"rev_number":182,"period_min":101.0103389399,"perigee_km":803.75431318237,"apogee_km":809.2203753835,"semimajor_km":7184.6243442829,"source":"CELESTRAK","updated_at":"2026-05-25T13:38:09.051138Z"}}